Weather History for Oscoda, MI

Change the Weather History Date:

Wednesday, May 8, 2013

  Actual Average Record
Temperature  
Mean Temperature 56 °F -  
Max Temperature 72 °F 59 °F 84 °F (2000)
Min Temperature 41 °F 41 °F 30 °F (2011)
Degree Days  
Heating Degree Days 8    
Growing Degree Days 6 (Base 50)    
Moisture  
Dew Point 34 °F    
Average Humidity 47    
Maximum Humidity 75    
Minimum Humidity 24    
Precipitation  
Precipitation 0.00 in - - ()
Sea Level Pressure  
Sea Level Pressure 30.02 in    
Wind  
Wind Speed 2 mph (ENE)    
Max Wind Speed 9 mph    
Max Gust Speed 17 mph    
Visibility 10 miles    
Events      
Averages and records for this station are not official NWS values.
T = Trace of Precipitation, MM = Missing Value Source: NWS Daily Summary

Daily Weather History Graph

Daily Weather History Graph

Search for Another Location

Airport:

Trip Planner

Search our weather history database for the weather conditions in past years. The results will help you decide how hot, cold, wet, or windy it might be!

Date:

Astronomy

May. 08, 2013 Rise Set
Actual Time 6:14 AM EDT 8:46 PM EDT
Civil Twilight 5:41 AM EDT 9:19 PM EDT
Nautical Twilight 5:00 AM EDT 10:00 PM EDT
Astronomical Twilight 4:13 AM EDT 10:48 PM EDT
Moon 5:24 AM EDT (5/8) 7:41 PM EDT (5/8)
Length of Visible Light 15h 38m
Length of Day
14h 32m
Waning Crescent, 2% of the Moon is Illuminated
May 8
Waning Crescent
May 9
New
May 18
First Quarter
May 25
Full
May 31
Last Quarter

Hourly Weather History & Observations

Time (EDT) Temp. Windchill Dew Point Humidity Pressure Visibility Wind Dir Wind Speed Gust Speed Precip Events Conditions
12:14 AM 46.2 °F - 34.7 °F 64% 30.05 in 10.0 mi Calm Calm - N/A   Clear
12:34 AM 46.0 °F - 33.8 °F 62% 30.05 in 10.0 mi Calm Calm - N/A   Clear
12:54 AM 45.0 °F - 34.5 °F 67% 30.05 in 10.0 mi Calm Calm - N/A   Clear
1:14 AM 43.7 °F 42.1 °F 34.9 °F 71% 30.04 in 10.0 mi NNW 3.5 mph - N/A   Clear
1:34 AM 41.5 °F 39.6 °F 34.0 °F 75% 30.04 in 10.0 mi NW 3.5 mph - N/A   Clear
1:54 AM 43.3 °F - 34.0 °F 70% 30.04 in 10.0 mi Calm Calm - N/A   Clear
2:14 AM 42.1 °F - 34.5 °F 75% 30.03 in 10.0 mi Calm Calm - N/A   Clear
2:34 AM 44.4 °F - 35.4 °F 71% 30.03 in 10.0 mi Calm Calm - N/A   Clear
2:54 AM 43.7 °F 42.1 °F 34.9 °F 71% 30.03 in 10.0 mi NNW 3.5 mph - N/A   Clear
3:14 AM 44.1 °F - 34.7 °F 70% 30.03 in 10.0 mi Calm Calm - N/A   Clear
3:34 AM 44.8 °F - 34.2 °F 66% 30.03 in 10.0 mi Calm Calm - N/A   Clear
3:54 AM 44.8 °F - 33.8 °F 65% 30.03 in 10.0 mi Calm Calm - N/A   Clear
4:14 AM 42.6 °F - 33.4 °F 70% 30.03 in 10.0 mi Calm Calm - N/A   Clear
4:34 AM 42.4 °F - 33.8 °F 71% 30.03 in 10.0 mi Calm Calm - N/A   Clear
4:54 AM 43.2 °F - 33.3 °F 68% 30.03 in 10.0 mi Calm Calm - N/A   Clear
5:14 AM 42.1 °F 40.2 °F 32.9 °F 70% 30.03 in 10.0 mi North 3.5 mph - N/A   Clear
5:34 AM 41.2 °F - 33.1 °F 73% 30.03 in 10.0 mi Calm Calm - N/A   Clear
5:54 AM 41.4 °F - 32.9 °F 72% 30.03 in 10.0 mi Calm Calm - N/A   Clear
6:14 AM 42.3 °F - 33.1 °F 70% 30.04 in 10.0 mi Calm Calm - N/A   Clear
6:34 AM 42.8 °F 41.1 °F 33.4 °F 70% 30.04 in 10.0 mi NNW 3.5 mph - N/A   Clear
6:54 AM 43.3 °F - 33.8 °F 69% 30.04 in 10.0 mi Calm Calm - N/A   Clear
7:14 AM 45.7 °F - 36.1 °F 69% 30.05 in 10.0 mi Calm Calm - N/A   Clear
7:34 AM 48.4 °F - 35.8 °F 62% 30.05 in 10.0 mi NNW 3.5 mph - N/A   Clear
7:54 AM 51.4 °F - 36.5 °F 57% 30.05 in 10.0 mi North 3.5 mph - N/A   Clear
8:14 AM 54.1 °F - 37.8 °F 54% 30.05 in 10.0 mi NNE 4.6 mph - N/A   Clear
8:34 AM 55.4 °F - 39.0 °F 54% 30.05 in 10.0 mi North 4.6 mph - N/A   Clear
8:54 AM 57.7 °F - 40.5 °F 53% 30.05 in 10.0 mi Calm Calm - N/A   Clear
9:14 AM 61.0 °F - 39.9 °F 46% 30.05 in 10.0 mi ENE 4.6 mph - N/A   Clear
9:34 AM 63.5 °F - 36.1 °F 36% 30.05 in 10.0 mi East 3.5 mph - N/A   Clear
9:54 AM 64.8 °F - 34.7 °F 33% 30.05 in 10.0 mi ENE 3.5 mph - N/A   Clear
10:14 AM 65.8 °F - 33.1 °F 30% 30.05 in 10.0 mi Calm Calm - N/A   Clear
10:34 AM 67.5 °F - 33.4 °F 28% 30.05 in 10.0 mi East 4.6 mph - N/A   Clear
10:54 AM 67.5 °F - 33.6 °F 29% 30.05 in 10.0 mi East 6.9 mph - N/A   Clear
11:14 AM 67.3 °F - 33.3 °F 28% 30.05 in 10.0 mi East 3.5 mph - N/A   Clear
11:34 AM 70.0 °F - 34.5 °F 27% 30.05 in 10.0 mi East 4.6 mph - N/A   Clear
11:54 AM 72.0 °F - 34.2 °F 25% 30.05 in 10.0 mi East 5.8 mph - N/A   Clear
12:14 PM 68.7 °F - 34.2 °F 28% 30.05 in 10.0 mi East 9.2 mph 17.3 mph N/A   Clear
12:34 PM 63.5 °F - 33.1 °F 32% 30.04 in 10.0 mi East 8.1 mph - N/A   Clear
12:54 PM 67.1 °F - 34.7 °F 30% 30.04 in 10.0 mi East 5.8 mph - N/A   Clear
1:14 PM 67.1 °F - 34.0 °F 29% 30.04 in 10.0 mi East 8.1 mph - N/A   Clear
1:34 PM 68.0 °F - 33.6 °F 28% 30.03 in 10.0 mi East 8.1 mph - N/A   Clear
1:54 PM 68.7 °F - 34.5 °F 28% 30.02 in 10.0 mi East 6.9 mph - N/A   Clear
2:14 PM 68.0 °F - 33.6 °F 28% 30.02 in 10.0 mi East 9.2 mph - N/A   Clear
2:34 PM 68.5 °F - 33.1 °F 27% 30.02 in 10.0 mi East 5.8 mph - N/A   Clear
2:54 PM 70.3 °F - 33.6 °F 26% 30.01 in 10.0 mi East 6.9 mph - N/A   Clear
3:14 PM 70.9 °F - 32.5 °F 24% 30.01 in 10.0 mi East 8.1 mph - N/A   Clear
3:34 PM 69.8 °F - 33.8 °F 27% 30.00 in 10.0 mi East 9.2 mph - N/A   Clear
3:54 PM 68.5 °F - 33.8 °F 28% 30.00 in 10.0 mi East 8.1 mph - N/A   Clear
4:13 PM 66.9 °F - 33.3 °F 29% 30.00 in 10.0 mi East 6.9 mph - N/A   Clear
4:34 PM 67.3 °F - 34.7 °F 30% 29.99 in 10.0 mi East 5.8 mph - N/A   Clear
4:54 PM 67.6 °F - 34.7 °F 30% 29.99 in 10.0 mi East 5.8 mph - N/A   Clear
5:13 PM 68.7 °F - 34.5 °F 28% 29.99 in 10.0 mi ENE 8.1 mph - N/A   Clear
5:34 PM 67.3 °F - 33.6 °F 29% 29.98 in 10.0 mi East 5.8 mph - N/A   Clear
5:54 PM 67.1 °F - 33.3 °F 29% 29.98 in 10.0 mi ENE 6.9 mph - N/A   Clear
6:14 PM 65.7 °F - 31.6 °F 28% 29.98 in 10.0 mi East 5.8 mph - N/A   Clear
6:34 PM 66.4 °F - 32.0 °F 28% 29.98 in 10.0 mi East 5.8 mph - N/A   Clear
6:54 PM 65.3 °F - 31.5 °F 28% 29.98 in 10.0 mi East 5.8 mph - N/A   Clear
7:14 PM 63.0 °F - 31.6 °F 31% 29.98 in 10.0 mi ENE 4.6 mph - N/A   Clear
7:34 PM 62.6 °F - 31.8 °F 32% 29.98 in 10.0 mi NNE 3.5 mph - N/A   Clear
7:54 PM 61.2 °F - 33.6 °F 36% 29.98 in 10.0 mi Calm Calm - N/A   Clear
8:14 PM 59.7 °F - 32.2 °F 35% 29.97 in 10.0 mi Calm Calm - N/A   Clear
8:34 PM 60.1 °F - 32.0 °F 35% 29.98 in 10.0 mi Calm Calm - N/A   Clear
8:54 PM 59.5 °F - 32.0 °F 35% 29.97 in 10.0 mi Calm Calm - N/A   Clear
9:14 PM 57.6 °F - 34.5 °F 42% 29.97 in 10.0 mi Calm Calm - N/A   Clear
9:34 PM 55.9 °F - 34.9 °F 45% 29.98 in 10.0 mi Calm Calm - N/A   Clear
9:54 PM 53.4 °F - 33.8 °F 47% 29.98 in 10.0 mi Calm Calm - N/A   Clear
10:14 PM 53.1 °F - 34.9 °F 50% 29.98 in 10.0 mi Calm Calm - N/A   Clear
10:34 PM 51.3 °F - 37.6 °F 60% 29.98 in 10.0 mi Calm Calm - N/A   Clear
10:54 PM 50.5 °F - 36.1 °F 58% 29.98 in 10.0 mi Calm Calm - N/A   Clear
11:14 PM 49.3 °F - 35.4 °F 59% 29.98 in 10.0 mi Calm Calm - N/A   Clear
11:34 PM 49.1 °F - 34.7 °F 58% 29.98 in 10.0 mi West 3.5 mph - N/A   Clear
11:54 PM 47.3 °F - 35.2 °F 63% 29.97 in 10.0 mi Calm Calm - N/A   Clear